GW5880 Weather Reports


Display with metric or nautical units.
time (UTC)temp
F
wind
direction
speed
MPH
gust
MPH
rain 1hr
in
rain 24hr
in
rain mn
in
humidity
%
barometer
mb
20260504034405 50 226 7.0 9.0 0.00 0.00 0.00 46 1010.6
20260504033902 50 222 6.0 8.0 0.00 0.00 0.00 46 1010.5
20260504033400 51 204 5.0 7.0 0.00 0.00 0.00 46 1010.6
20260504032856 51 218 7.0 9.0 0.00 0.00 0.00 44 1010.7
20260504032353 51 212 6.0 8.0 0.00 0.00 0.00 44 1010.5
20260504031850 51 201 5.0 7.0 0.00 0.00 0.00 43 1010.5
20260504031347 51 202 6.0 7.0 0.00 0.00 0.00 43 1010.7
20260504030843 51 200 6.0 7.0 0.00 0.00 0.00 44 1010.8
20260504030341 51 199 4.0 7.0 0.00 0.00 0.00 45 1010.8
20260504025837 51 196 4.0 4.0 0.00 0.00 0.00 44 1010.7
20260504025334 50 208 4.0 4.0 0.00 0.00 0.00 45 1010.8
20260504024831 51 221 4.0 6.0 0.00 0.00 0.00 45 1010.9
20260504024327 51 226 4.0 7.0 0.00 0.00 0.00 44 1011.1
20260504023824 51 231 4.0 8.0 0.00 0.00 0.00 44 1011.2
20260504023321 51 225 3.0 7.0 0.00 0.00 0.00 43 1011.1
20260504022816 51 248 2.0 4.0 0.00 0.00 0.00 43 1011.0
20260504022314 51 220 4.0 4.0 0.00 0.00 0.00 43 1010.9
20260504021810 51 306 3.0 6.0 0.00 0.00 0.00 43 1010.9
20260504021308 51 256 1.0 3.0 0.00 0.00 0.00 44 1010.8
20260504020804 51 264 6.0 8.0 0.00 0.00 0.00 42 1010.8
20260504020301 51 283 2.0 4.0 0.00 0.00 0.00 44 1010.9
20260504015757 52 244 1.0 4.0 0.00 0.00 0.00 44 1010.9
20260504015253 52 266 2.0 6.0 0.00 0.00 0.00 43 1010.8
20260504014749 52 246 8.0 10.0 0.00 0.00 0.00 42 1011.0
20260504014246 52 350 2.0 6.0 0.00 0.00 0.00 42 1010.8
20260504013744 52 321 6.0 11.0 0.00 0.00 0.00 41 1011.0
20260504013241 52 300 8.0 13.0 0.00 0.00 0.00 42 1010.9
20260504012737 52 337 4.0 6.0 0.00 0.00 0.00 43 1011.1
20260504012235 52 302 5.0 8.0 0.00 0.00 0.00 42 1010.8
20260504011732 52 290 6.0 9.0 0.00 0.00 0.00 42 1010.9
20260504011229 52 251 3.0 8.0 0.00 0.00 0.00 42 1010.9
20260504010725 53 291 6.0 10.0 0.00 0.00 0.00 42 1010.8
20260504010220 52 283 10.0 16.0 0.00 0.00 0.00 41 1010.8
20260504005717 53 310 9.0 11.0 0.00 0.00 0.00 40 1010.9
20260504005215 53 287 8.0 13.0 0.00 0.00 0.00 41 1010.9
20260504004712 53 274 6.0 8.0 0.00 0.00 0.00 41 1010.8
20260504004209 53 291 9.0 14.0 0.00 0.00 0.00 39 1010.7
20260504003706 53 301 11.0 19.0 0.00 0.00 0.00 38 1010.8
20260504003203 53 300 10.0 14.0 0.00 0.00 0.00 41 1010.7
20260504002659 53 316 6.0 16.0 0.00 0.00 0.00 41 1010.6
20260504002157 53 298 7.0 9.0 0.00 0.00 0.00 41 1010.6
20260504001655 53 306 9.0 10.0 0.00 0.00 0.00 42 1010.3
20260504001150 52 282 5.0 8.0 0.00 0.00 0.00 44 1010.3
20260504000647 52 274 3.0 7.0 0.00 0.00 0.00 43 1010.4
20260504000145 52 300 3.0 6.0 0.00 0.00 0.00 42 1010.4
20260503235643 52 282 5.0 7.0 0.00 0.00 0.00 43 1010.0
20260503235139 52 294 2.0 3.0 0.00 0.00 0.00 44 1010.0
20260503234638 52 263 2.0 4.0 0.00 0.00 0.00 43 1010.2
20260503234135 53 253 4.0 7.0 0.00 0.00 0.00 42 1010.2
20260503233632 52 246 2.0 2.0 0.00 0.00 0.00 42 1010.3
20260503233127 52 232 1.0 2.0 0.00 0.00 0.00 43 1010.2
20260503232625 53 267 2.0 7.0 0.00 0.00 0.00 43 1010.4
20260503232122 53 246 2.0 4.0 0.00 0.00 0.00 42 1010.1
20260503231620 53 306 7.0 9.0 0.00 0.00 0.00 42 1010.1
20260503231116 53 298 5.0 11.0 0.00 0.00 0.00 41 1010.3
20260503230613 53 317 10.0 15.0 0.00 0.00 0.00 41 1010.5
20260503230110 53 317 10.0 19.0 0.00 0.00 0.00 40 1010.2
20260503225608 53 305 14.0 19.0 0.00 0.00 0.00 40 1010.3
20260503225107 54 27 11.0 19.0 0.00 0.00 0.00 40 1010.2
20260503224605 54 285 10.0 19.0 0.00 0.00 0.00 39 1010.2
20260503224103 54 300 10.0 13.0 0.00 0.00 0.00 41 1009.9
20260503223601 54 325 5.0 11.0 0.00 0.00 0.00 40 1009.9
20260503223056 54 229 3.0 8.0 0.00 0.00 0.00 42 1009.9
20260503222554 54 271 7.0 9.0 0.00 0.00 0.00 42 1010.0
20260503222052 54 215 3.0 9.0 0.00 0.00 0.00 42 1009.9
20260503221550 54 338 6.0 9.0 0.00 0.00 0.00 42 1010.1
20260503221047 53 282 5.0 9.0 0.00 0.00 0.00 42 1010.1
20260503220543 53 311 11.0 16.0 0.00 0.00 0.00 40 1010.2
20260503220040 53 22 5.0 9.0 0.00 0.00 0.00 42 1010.1
20260503215537 53 294 6.0 10.0 0.00 0.00 0.00 42 1010.0
20260503215034 54 265 3.0 14.0 0.00 0.00 0.00 41 1010.1
20260503214532 54 263 9.0 11.0 0.00 0.00 0.00 40 1010.1
20260503214029 54 302 3.0 16.0 0.00 0.00 0.00 41 1010.1
20260503213527 53 255 5.0 11.0 0.00 0.00 0.00 42 1010.1
20260503213024 54 289 9.0 13.0 0.00 0.00 0.00 40 1010.1
20260503212521 54 289 4.0 14.0 0.00 0.00 0.00 41 1009.9
20260503212018 54 311 7.0 14.0 0.00 0.00 0.00 41 1009.9
20260503211515 54 292 6.0 14.0 0.00 0.00 0.00 41 1009.7
20260503211011 54 250 4.0 10.0 0.00 0.00 0.00 42 1010.0
20260503210508 55 312 8.0 18.0 0.00 0.00 0.00 39 1010.0
20260503210003 56 302 4.0 16.0 0.00 0.00 0.00 39 1009.9
20260503205500 55 262 12.0 21.0 0.00 0.00 0.00 39 1010.0
20260503204956 55 296 9.0 17.0 0.00 0.00 0.00 40 1010.2
20260503204454 54 233 3.0 9.0 0.00 0.00 0.00 42 1010.2
20260503203950 54 9 6.0 13.0 0.00 0.00 0.00 43 1010.4
20260503203448 53 275 8.0 13.0 0.00 0.00 0.00 41 1010.4
20260503202944 53 308 8.0 14.0 0.00 0.00 0.00 41 1010.3
20260503202443 53 269 9.0 11.0 0.00 0.00 0.00 40 1010.4
20260503201941 53 318 3.0 9.0 0.00 0.00 0.00 43 1010.3
20260503201438 53 296 4.0 7.0 0.00 0.00 0.00 41 1010.5
20260503200935 54 297 7.0 10.0 0.00 0.00 0.00 41 1010.6
20260503200431 55 211 11.0 21.0 0.00 0.00 0.00 38 1010.3
20260503195928 54 308 6.0 14.0 0.00 0.00 0.00 41 1010.7
20260503195426 54 292 8.0 15.0 0.00 0.00 0.00 42 1010.7
20260503194922 53 290 13.0 15.0 0.00 0.00 0.00 43 1010.8
20260503194419 54 8 5.0 11.0 0.00 0.00 0.00 41 1010.9
20260503193914 54 310 4.0 22.0 0.00 0.00 0.00 42 1011.2
20260503193410 53 303 10.0 13.0 0.00 0.00 0.00 44 1011.1
20260503192906 52 259 9.0 11.0 0.00 0.00 0.00 43 1011.3
20260503192402 51 306 6.0 15.0 0.00 0.00 0.00 45 1011.3
20260503191858 52 299 7.0 11.0 0.00 0.00 0.00 44 1011.4
20260503191355 53 292 10.0 14.0 0.00 0.00 0.00 42 1011.4
20260503190852 52 309 11.0 16.0 0.00 0.00 0.00 44 1011.3
20260503190349 52 299 10.0 11.0 0.00 0.00 0.00 45 1011.6
20260503185846 52 43 4.0 13.0 0.00 0.00 0.00 42 1011.5
20260503185343 54 284 7.0 15.0 0.00 0.00 0.00 42 1011.5
20260503184842 53 301 5.0 14.0 0.00 0.00 0.00 41 1011.4
20260503184338 53 211 8.0 17.0 0.00 0.00 0.00 41 1011.5
20260503183834 51 296 11.0 17.0 0.00 0.00 0.00 42 1011.5
20260503183331 51 291 14.0 17.0 0.00 0.00 0.00 42 1011.4
20260503182829 51 299 7.0 11.0 0.00 0.00 0.00 43 1011.6
20260503182328 52 286 7.0 14.0 0.00 0.00 0.00 42 1011.7
20260503181825 52 273 9.0 14.0 0.00 0.00 0.00 41 1011.5
20260503181322 52 302 13.0 17.0 0.00 0.00 0.00 41 1011.5
20260503180818 51 253 12.0 16.0 0.00 0.00 0.00 42 1011.6
20260503180316 51 267 6.0 11.0 0.00 0.00 0.00 42 1011.8
20260503175812 50 303 6.0 11.0 0.00 0.00 0.00 44 1011.7
20260503175311 50 291 9.0 16.0 0.00 0.00 0.00 45 1011.7
20260503174806 51 335 9.0 14.0 0.00 0.00 0.00 44 1011.8
20260503174304 51 341 11.0 17.0 0.00 0.00 0.00 44 1011.8
20260503173759 50 219 6.0 11.0 0.00 0.00 0.00 42 1011.8
20260503173255 51 325 8.0 14.0 0.00 0.00 0.00 42 1011.9
20260503172752 50 253 8.0 18.0 0.00 0.00 0.00 41 1012.0
20260503172250 51 357 10.0 19.0 0.00 0.00 0.00 41 1011.8
20260503171746 51 307 14.0 21.0 0.00 0.00 0.00 39 1012.0
20260503171243 51 299 5.0 7.0 0.00 0.00 0.00 39 1011.8
20260503170740 52 296 8.0 11.0 0.00 0.00 0.00 39 1011.8
20260503170237 51 306 6.0 16.0 0.00 0.00 0.00 40 1011.8
20260503160159 47 264 4.0 7.0 0.00 0.00 0.00 47 1012.9
20260503150629 47 319 6.0 7.0 0.00 0.00 0.00 48 1013.4
20260503150125 46 304 7.0 13.0 0.00 0.00 0.00 47 1013.4
20260503131019 40 302 8.0 9.0 0.00 0.00 0.00 61 1013.8
20260503130516 40 312 12.0 14.0 0.00 0.00 0.00 58 1013.8
20260503110413 33 247 2.0 2.0 0.00 0.00 0.00 84 1013.6
20260503090303 34 303 2.0 3.0 0.00 0.00 0.00 81 1013.1
20260503081231 35 287 1.0 6.0 0.00 0.00 0.00 80 1013.0
20260503080726 35 288 2.0 3.0 0.00 0.00 0.00 80 1013.1
20260503080224 35 318 2.0 4.0 0.00 0.00 0.00 80 1013.1
20260503072700 35 277 0.0 2.0 0.00 0.00 0.00 80 1012.9
20260503072157 35 245 1.0 3.0 0.00 0.00 0.00 80 1013.1
20260503071654 35 286 1.0 2.0 0.00 0.00 0.00 79 1013.1
20260503071150 35 286 0.0 2.0 0.00 0.00 0.00 79 1013.0
20260503070647 35 265 0.0 0.0 0.00 0.00 0.00 78 1013.1
20260503070146 36 233 4.0 4.0 0.00 0.00 0.00 78 1013.0
20260503060109 35 275 1.0 2.0 0.00 0.00 0.00 79 1013.4
20260503055101 35 290 0.0 2.0 0.00 0.00 0.00 79 1013.3
20260503054557 35 286 0.0 2.0 0.00 0.00 0.00 78 1013.4
20260503054054 36 271 1.0 2.0 0.00 0.00 0.00 78 1013.5
20260503053552 36 299 1.0 2.0 0.00 0.00 0.00 78 1013.5
20260503053050 36 252 0.0 2.0 0.00 0.00 0.00 77 1013.6
20260503052546 36 291 1.0 3.0 0.00 0.00 0.00 77 1013.5
20260503052042 36 308 1.0 3.0 0.00 0.00 0.00 76 1013.4
20260503051538 36 304 4.0 6.0 0.00 0.00 0.00 76 1013.5
20260503051036 36 289 1.0 4.0 0.00 0.00 0.00 75 1013.5
20260503050531 36 292 1.0 2.0 0.00 0.00 0.00 75 1013.6
20260503050029 36 306 2.0 3.0 0.00 0.00 0.00 74 1013.6
20260503045526 36 312 1.0 4.0 0.00 0.00 0.00 74 1013.7
20260503045024 36 337 1.0 3.0 0.00 0.00 0.00 74 1013.9
20260503044520 36 295 1.0 3.0 0.00 0.00 0.00 74 1013.8
20260503044018 36 311 2.0 6.0 0.00 0.00 0.00 74 1013.7
20260503043514 37 307 4.0 4.0 0.00 0.00 0.00 73 1013.8
20260503043010 37 320 2.0 8.0 0.00 0.00 0.00 73 1014.0
20260503042507 37 308 3.0 3.0 0.00 0.00 0.00 74 1014.0
20260503042003 37 310 2.0 4.0 0.00 0.00 0.00 74 1014.1
20260503041500 37 306 3.0 4.0 0.00 0.00 0.00 74 1014.1
20260503040958 37 296 1.0 4.0 0.00 0.00 0.00 74 1014.1
20260503040455 37 295 2.0 4.0 0.00 0.00 0.00 73 1014.0
20260503035952 37 292 3.0 4.0 0.00 0.00 0.00 73 1014.0
20260503035449 37 303 7.0 9.0 0.00 0.00 0.00 74 1014.0
20260503034947 37 290 3.0 4.0 0.00 0.00 0.00 74 1014.0